contact:dominique.lefevre@mio.osupytheas.fr, maurice.libes@osupytheas.fr, didier.mallarino@osupytheas.fr
Project:EMSO http://www.emso-fr.org/EMSO-France
Depth: 2436.0 m
Title:EMSO Ligure Ouest : Data MII capteur AQUADOPP
Date,Latitude,Longitude,X_East,Y_North,Z_Up,Amplitude_X,Amplitude_Y,Amplitude_Z,Batterie,SoundSpeed,Heading,Pitch,Roll,Pressure,TIS,Speed,Direction
, degrees North, degrees East, m.s-1, m.s-1,m.s-1, 1, 1, 1, Volt, m.s-1, degree, degree, degree, dbar, degree_C, m.s-1, degree
2022-09-11T00:04:03,42.805,6.029,0.0,-0.039,-0.035,101.0,102.0,101.0,13.3,1505.2,332.2,-0.8,1.8,2470.822,13.28,0.039,180.0
2022-09-11T00:07:03,42.805,6.029,0.0,0.0,-0.005,101.0,101.0,101.0,13.4,1505.2,317.8,-0.8,1.8,2470.79,13.28,0.0,0.0
2022-09-11T00:10:03,42.805,6.029,0.01,-0.015,0.013,101.0,101.0,101.0,13.4,1505.2,322.1,-0.8,1.8,2470.797,13.28,0.018,146.3
2022-09-11T00:13:03,42.805,6.029,0.008,-0.018,0.006,102.0,102.0,101.0,13.3,1505.2,324.6,-0.8,1.8,2470.811,13.29,0.019,156.0
2022-09-11T00:16:03,42.805,6.029,-0.006,-0.005,-0.017,100.0,101.0,101.0,13.4,1505.2,331.9,-0.8,1.8,2470.767,13.29,0.007,230.2
2022-09-11T00:19:03,42.805,6.029,-0.018,-0.019,-0.013,101.0,101.0,101.0,13.4,1505.2,329.4,-0.8,1.8,2470.81,13.29,0.026,223.5
2022-09-11T00:22:03,42.805,6.029,0.022,-0.013,0.001,100.0,101.0,102.0,13.4,1505.2,323.6,-0.8,1.8,2470.808,13.29,0.025,120.6
2022-09-11T00:25:03,42.805,6.029,0.003,-0.001,-0.006,101.0,101.0,101.0,13.3,1505.2,330.1,-0.7,1.8,2470.832,13.29,0.003,108.4
2022-09-11T00:28:03,42.805,6.029,-0.004,-0.035,-0.023,101.0,102.0,101.0,13.4,1505.2,318.1,-0.8,1.8,2470.806,13.29,0.035,186.5
2022-09-11T00:31:03,42.805,6.029,-0.004,-0.003,-0.02,100.0,102.0,101.0,13.3,1505.2,317.6,-0.7,1.8,2470.805,13.29,0.005,233.1
2022-09-11T00:34:03,42.805,6.029,-0.018,-0.018,-0.02,111.0,102.0,101.0,13.3,1505.2,333.1,-0.8,1.9,2470.827,13.29,0.025,225.0
2022-09-11T00:37:03,42.805,6.029,0.017,-0.004,0.005,104.0,103.0,101.0,13.4,1505.2,321.9,-0.7,1.8,2470.824,13.29,0.017,103.2
2022-09-11T00:40:03,42.805,6.029,0.015,-0.015,-0.038,101.0,103.0,101.0,13.3,1505.2,319.1,-0.8,1.8,2470.796,13.29,0.021,135.0
2022-09-11T00:43:03,42.805,6.029,0.018,-0.032,-0.003,101.0,101.0,101.0,13.4,1505.2,330.7,-0.8,1.8,2470.842,13.29,0.036,150.6
2022-09-11T00:46:03,42.805,6.029,0.004,-0.02,-0.006,101.0,100.0,101.0,13.4,1505.2,322.8,-0.8,1.9,2470.816,13.29,0.02,168.7
2022-09-11T00:49:03,42.805,6.029,0.018,-0.002,0.01,101.0,101.0,100.0,13.4,1505.2,321.0,-0.8,1.8,2470.801,13.29,0.018,96.3
2022-09-11T00:52:03,42.805,6.029,0.029,-0.02,-0.02,102.0,101.0,101.0,13.4,1505.2,322.2,-0.8,1.8,2470.813,13.29,0.035,124.6
2022-09-11T00:55:03,42.805,6.029,0.002,-0.005,0.007,101.0,102.0,100.0,13.3,1505.2,330.7,-0.7,1.8,2470.804,13.29,0.005,158.2
2022-09-11T00:58:03,42.805,6.029,-0.002,-0.01,-0.023,100.0,103.0,100.0,13.4,1505.2,322.8,-0.8,1.8,2470.803,13.29,0.01,191.3
2022-09-11T01:04:03,42.805,6.029,0.025,0.0,0.019,107.0,103.0,102.0,13.3,1505.2,319.9,-0.7,1.8,2470.849,13.28,0.025,90.0
2022-09-11T01:07:03,42.805,6.029,0.019,-0.016,0.0,102.0,101.0,101.0,13.3,1505.2,317.8,-0.7,1.8,2470.833,13.28,0.024,130.1
2022-09-11T01:10:03,42.805,6.029,-0.002,-0.018,-0.017,101.0,101.0,100.0,13.3,1505.2,322.2,-0.8,1.8,2470.81,13.28,0.018,186.3
2022-09-11T01:13:03,42.805,6.029,0.006,-0.009,0.002,103.0,100.0,101.0,13.4,1505.2,332.5,-0.8,1.8,2470.809,13.29,0.01,146.3
2022-09-11T01:16:03,42.805,6.029,0.004,-0.007,-0.016,99.0,105.0,101.0,13.4,1505.2,321.8,-0.8,1.8,2470.79,13.29,0.008,150.3
2022-09-11T01:19:03,42.805,6.029,0.011,-0.03,-0.01,101.0,99.0,101.0,13.3,1505.2,322.8,-0.7,1.8,2470.822,13.29,0.031,159.9
2022-09-11T01:22:03,42.805,6.029,-0.006,0.009,0.006,100.0,101.0,101.0,13.4,1505.2,333.9,-0.8,1.8,2470.827,13.29,0.01,326.3
2022-09-11T01:25:03,42.805,6.029,-0.003,-0.036,-0.025,100.0,101.0,100.0,13.4,1505.2,320.3,-0.8,1.9,2470.833,13.29,0.036,184.8
2022-09-11T01:28:03,42.805,6.029,0.004,-0.012,-0.016,100.0,102.0,101.0,13.4,1505.2,320.1,-0.7,1.8,2470.839,13.29,0.012,161.6
2022-09-11T01:31:03,42.805,6.029,0.011,-0.016,-0.012,101.0,101.0,101.0,13.3,1505.2,331.6,-0.8,1.8,2470.823,13.29,0.019,145.5
2022-09-11T01:34:03,42.805,6.029,0.001,-0.003,-0.01,101.0,102.0,100.0,13.3,1505.2,326.9,-0.8,1.8,2470.878,13.29,0.003,161.6
2022-09-11T01:37:03,42.805,6.029,-0.006,0.0,-0.011,101.0,101.0,102.0,13.4,1505.2,321.5,-0.8,1.9,2470.842,13.29,0.006,270.0
2022-09-11T01:40:03,42.805,6.029,-0.03,0.001,0.004,101.0,102.0,100.0,13.4,1505.2,324.1,-0.8,1.8,2470.83,13.29,0.03,271.9
2022-09-11T01:43:03,42.805,6.029,-0.009,-0.005,-0.004,100.0,101.0,100.0,13.4,1505.2,326.6,-0.8,1.8,2470.87,13.29,0.01,240.9
2022-09-11T01:46:03,42.805,6.029,-0.004,-0.01,-0.022,100.0,101.0,101.0,13.4,1505.2,322.8,-0.8,1.8,2470.845,13.29,0.01,201.8
2022-09-11T01:49:03,42.805,6.029,-0.006,-0.018,-0.017,101.0,102.0,100.0,13.4,1505.2,327.7,-0.7,1.9,2470.835,13.29,0.018,198.4
2022-09-11T01:52:03,42.805,6.029,0.021,0.018,0.045,101.0,100.0,101.0,13.4,1505.2,323.1,-0.7,1.9,2470.844,13.29,0.027,49.4
2022-09-11T01:55:03,42.805,6.029,-0.003,-0.01,-0.018,101.0,101.0,101.0,13.4,1505.2,324.0,-0.7,1.8,2470.815,13.29,0.01,196.7
2022-09-11T01:58:03,42.805,6.029,-0.018,-0.014,-0.001,99.0,101.0,101.0,13.4,1505.2,333.1,-0.8,1.8,2470.821,13.29,0.022,232.1
2022-09-11T02:04:03,42.805,6.029,0.011,-0.027,-0.033,102.0,101.0,101.0,13.4,1505.2,323.1,-0.8,1.8,2470.898,13.28,0.029,157.8
2022-09-11T02:07:03,42.805,6.029,0.022,-0.021,0.004,100.0,100.0,101.0,13.3,1505.2,325.5,-0.8,1.8,2470.854,13.29,0.03,133.7
2022-09-11T02:10:03,42.805,6.029,0.018,0.003,0.027,101.0,101.0,101.0,13.4,1505.2,326.1,-0.7,1.8,2470.876,13.29,0.018,80.5
2022-09-11T02:13:03,42.805,6.029,-0.009,-0.03,-0.03,101.0,101.0,101.0,13.4,1505.2,327.2,-0.8,1.8,2470.833,13.29,0.031,196.7
2022-09-11T02:16:03,42.805,6.029,0.0,-0.003,-0.01,101.0,101.0,101.0,13.4,1505.2,321.0,-0.7,1.8,2470.85,13.29,0.003,180.0
2022-09-11T02:19:03,42.805,6.029,0.009,-0.005,-0.016,102.0,100.0,102.0,13.4,1505.2,323.4,-0.8,1.8,2470.804,13.29,0.01,119.1
2022-09-11T02:22:03,42.805,6.029,-0.008,-0.008,-0.024,100.0,102.0,101.0,13.4,1505.2,322.4,-0.8,1.8,2470.833,13.29,0.011,225.0
2022-09-11T02:25:03,42.805,6.029,0.003,-0.021,-0.03,103.0,100.0,100.0,13.4,1505.2,331.3,-0.8,1.8,2470.833,13.29,0.021,171.9
2022-09-11T02:28:03,42.805,6.029,-0.017,0.014,-0.006,102.0,102.0,101.0,13.3,1505.2,318.1,-0.8,1.8,2470.862,13.29,0.022,309.5
2022-09-11T02:31:03,42.805,6.029,-0.019,0.012,0.016,101.0,102.0,100.0,13.4,1505.2,319.0,-0.8,1.8,2470.845,13.29,0.022,302.3
2022-09-11T02:34:03,42.805,6.029,0.005,0.0,-0.019,102.0,105.0,101.0,13.3,1505.2,327.3,-0.7,1.8,2470.846,13.29,0.005,90.0
2022-09-11T02:37:03,42.805,6.029,0.029,-0.018,-0.011,103.0,102.0,101.0,13.4,1505.2,332.1,-0.8,1.8,2470.804,13.29,0.034,121.8
2022-09-11T02:40:03,42.805,6.029,-0.026,-0.008,0.004,101.0,102.0,100.0,13.3,1505.2,326.7,-0.7,1.8,2470.847,13.29,0.027,252.9
2022-09-11T02:43:03,42.805,6.029,0.004,-0.007,0.0,104.0,103.0,101.0,13.4,1505.2,334.5,-0.8,1.8,2470.819,13.29,0.008,150.3
2022-09-11T02:46:03,42.805,6.029,0.002,-0.01,-0.002,101.0,102.0,100.0,13.4,1505.2,322.2,-0.8,1.8,2470.784,13.29,0.01,168.7
2022-09-11T02:49:03,42.805,6.029,0.016,0.0,-0.003,102.0,101.0,101.0,13.4,1505.2,320.0,-0.8,1.8,2470.807,13.29,0.016,90.0
2022-09-11T02:52:03,42.805,6.029,0.007,-0.024,-0.044,100.0,102.0,101.0,13.3,1505.2,323.7,-0.8,1.8,2470.813,13.29,0.025,163.7
2022-09-11T02:55:03,42.805,6.029,0.004,-0.01,-0.003,103.0,100.0,101.0,13.4,1505.2,328.8,-0.7,1.8,2470.819,13.29,0.01,158.2
2022-09-11T02:58:03,42.805,6.029,0.023,-0.027,0.014,100.0,103.0,100.0,13.3,1505.2,326.4,-0.8,1.8,2470.83,13.29,0.035,139.6
2022-09-11T03:04:03,42.805,6.029,0.0,-0.006,-0.021,102.0,101.0,100.0,13.4,1505.2,317.8,-0.8,1.8,2470.817,13.29,0.006,180.0
2022-09-11T03:07:03,42.805,6.029,0.019,-0.014,-0.024,103.0,101.0,100.0,13.3,1505.2,325.2,-0.8,1.8,2470.833,13.29,0.023,126.4
2022-09-11T03:10:03,42.805,6.029,0.006,-0.013,-0.026,101.0,102.0,101.0,13.4,1505.2,327.9,-0.8,1.8,2470.862,13.29,0.014,155.2
2022-09-11T03:13:03,42.805,6.029,0.005,-0.003,-0.003,101.0,101.0,101.0,13.4,1505.2,333.7,-0.7,1.8,2470.796,13.29,0.005,121.0
2022-09-11T03:16:03,42.805,6.029,-0.011,-0.004,0.011,102.0,102.0,101.0,13.3,1505.2,325.8,-0.8,1.8,2470.803,13.29,0.011,250.0
2022-09-11T03:19:03,42.805,6.029,-0.002,-0.006,-0.021,100.0,103.0,101.0,13.3,1505.2,319.6,-0.8,1.8,2470.809,13.29,0.006,198.4
2022-09-11T03:22:03,42.805,6.029,0.016,-0.023,0.0,101.0,103.0,100.0,13.3,1505.2,331.3,-0.8,1.8,2470.808,13.29,0.028,145.2
2022-09-11T03:25:03,42.805,6.029,-0.008,-0.009,-0.009,102.0,101.0,101.0,13.4,1505.2,325.5,-0.7,1.8,2470.791,13.29,0.012,221.6
2022-09-11T03:28:03,42.805,6.029,-0.008,0.013,-0.004,103.0,104.0,101.0,13.4,1505.2,326.6,-0.8,1.8,2470.771,13.29,0.015,328.4
2022-09-11T03:31:03,42.805,6.029,-0.005,-0.002,-0.003,102.0,102.0,101.0,13.4,1505.2,327.1,-0.7,1.8,2470.809,13.29,0.005,248.2
2022-09-11T03:34:03,42.805,6.029,0.003,0.002,0.009,102.0,102.0,101.0,13.3,1505.2,333.1,-0.8,1.8,2470.792,13.29,0.003,56.3
2022-09-11T03:37:03,42.805,6.029,0.0,-0.001,-0.014,100.0,101.0,102.0,13.4,1505.2,318.4,-0.7,1.8,2470.792,13.29,0.001,180.0
2022-09-11T03:40:03,42.805,6.029,0.001,-0.033,-0.069,101.0,102.0,100.0,13.4,1505.2,320.0,-0.8,1.8,2470.783,13.29,0.033,178.3
2022-09-11T03:43:03,42.805,6.029,0.015,-0.001,-0.01,102.0,100.0,101.0,13.4,1505.2,320.9,-0.7,1.8,2470.771,13.29,0.015,93.8
2022-09-11T03:46:03,42.805,6.029,0.011,-0.03,-0.013,101.0,102.0,100.0,13.4,1505.2,328.0,-0.8,1.8,2470.791,13.29,0.031,159.9
2022-09-11T03:49:03,42.805,6.029,0.002,0.011,-0.002,102.0,102.0,100.0,13.4,1505.2,327.9,-0.8,1.8,2470.795,13.29,0.011,10.3
2022-09-11T03:52:03,42.805,6.029,0.0,-0.01,-0.013,101.0,101.0,101.0,13.4,1505.2,329.6,-0.8,1.8,2470.826,13.29,0.01,180.0
2022-09-11T03:55:03,42.805,6.029,-0.006,0.0,-0.014,102.0,102.0,101.0,13.4,1505.2,322.5,-0.8,1.8,2470.827,13.29,0.006,270.0
2022-09-11T03:58:03,42.805,6.029,0.009,-0.012,-0.014,100.0,103.0,101.0,13.3,1505.2,326.7,-0.8,1.8,2470.83,13.29,0.015,143.1
2022-09-11T04:04:03,42.805,6.029,0.008,0.005,-0.02,100.0,101.0,101.0,13.4,1505.2,319.5,-0.7,1.8,2470.894,13.29,0.009,58.0
2022-09-11T04:07:03,42.805,6.029,-0.021,-0.003,-0.006,103.0,101.0,101.0,13.3,1505.2,321.9,-0.8,1.8,2470.911,13.29,0.021,261.9
2022-09-11T04:10:03,42.805,6.029,-0.017,0.015,0.004,100.0,102.0,100.0,13.4,1505.2,321.1,-0.8,1.8,2470.871,13.29,0.022,311.4
2022-09-11T04:13:03,42.805,6.029,0.017,0.0,0.014,99.0,102.0,100.0,13.3,1505.2,321.9,-0.8,1.8,2470.865,13.29,0.017,90.0
2022-09-11T04:16:03,42.805,6.029,0.008,-0.021,-0.034,102.0,99.0,101.0,13.4,1505.2,327.1,-0.8,1.8,2470.888,13.29,0.022,159.1
2022-09-11T04:19:03,42.805,6.029,0.0,0.0,0.005,100.0,102.0,101.0,13.3,1505.2,320.5,-0.8,1.8,2470.885,13.29,0.0,0.0
2022-09-11T04:22:03,42.805,6.029,-0.003,0.0,-0.01,101.0,100.0,101.0,13.4,1505.2,327.9,-0.8,1.9,2470.866,13.29,0.003,270.0
2022-09-11T04:25:03,42.805,6.029,0.006,0.021,0.028,101.0,101.0,102.0,13.4,1505.2,324.9,-0.7,1.8,2470.873,13.29,0.021,15.9
2022-09-11T04:28:03,42.805,6.029,0.016,0.009,0.011,100.0,100.0,101.0,13.4,1505.2,332.8,-0.8,1.8,2470.899,13.29,0.018,60.6
2022-09-11T04:31:03,42.805,6.029,0.013,-0.008,-0.008,102.0,101.0,100.0,13.4,1505.2,321.1,-0.8,1.8,2470.9,13.29,0.015,121.6
2022-09-11T04:34:03,42.805,6.029,-0.004,-0.028,-0.024,100.0,100.0,101.0,13.4,1505.2,318.6,-0.8,1.8,2470.88,13.29,0.028,188.1
2022-09-11T04:37:03,42.805,6.029,-0.001,-0.007,-0.021,101.0,101.0,100.0,13.3,1505.2,317.4,-0.8,1.9,2470.903,13.29,0.007,188.1
2022-09-11T04:40:03,42.805,6.029,0.004,-0.007,0.0,100.0,101.0,101.0,13.3,1505.2,318.4,-0.8,1.8,2470.886,13.29,0.008,150.3
2022-09-11T04:43:03,42.805,6.029,-0.011,0.024,0.02,102.0,100.0,100.0,13.3,1505.2,333.1,-0.8,1.8,2470.893,13.29,0.026,335.4
2022-09-11T04:46:03,42.805,6.029,-0.016,-0.006,-0.016,101.0,103.0,100.0,13.3,1505.2,328.1,-0.7,1.8,2470.92,13.29,0.017,249.4
2022-09-11T04:49:03,42.805,6.029,-0.002,0.004,0.022,101.0,101.0,102.0,13.4,1505.2,324.1,-0.7,1.8,2470.918,13.29,0.004,333.4
2022-09-11T04:52:03,42.805,6.029,0.019,-0.001,0.011,103.0,101.0,101.0,13.4,1505.2,324.6,-0.8,1.8,2470.892,13.29,0.019,93.0
2022-09-11T04:55:03,42.805,6.029,0.011,0.003,0.018,101.0,102.0,100.0,13.4,1505.2,325.8,-0.7,1.8,2470.928,13.29,0.011,74.7
2022-09-11T04:58:03,42.805,6.029,0.009,-0.003,-0.019,101.0,102.0,100.0,13.3,1505.2,327.1,-0.7,1.8,2470.897,13.29,0.009,108.4
2022-09-11T05:04:03,42.805,6.029,-0.01,0.0,0.001,101.0,103.0,100.0,13.3,1505.2,322.3,-0.8,1.8,2470.964,13.29,0.01,270.0
2022-09-11T05:07:03,42.805,6.029,-0.01,-0.008,-0.011,101.0,100.0,101.0,13.3,1505.2,330.2,-0.7,1.8,2470.923,13.29,0.012,231.3
2022-09-11T05:10:03,42.805,6.029,-0.005,-0.01,0.002,101.0,103.0,101.0,13.4,1505.2,319.0,-0.8,1.8,2470.946,13.29,0.011,206.6
2022-09-11T05:13:03,42.805,6.029,-0.022,0.008,-0.009,101.0,102.0,101.0,13.4,1505.2,322.4,-0.8,1.8,2470.938,13.29,0.023,290.0
2022-09-11T05:16:03,42.805,6.029,-0.001,0.0,-0.01,102.0,102.0,101.0,13.4,1505.2,324.3,-0.7,1.8,2470.955,13.29,0.001,270.0
2022-09-11T05:19:03,42.805,6.029,0.011,-0.008,-0.04,103.0,101.0,100.0,13.4,1505.2,330.4,-0.8,1.8,2470.959,13.29,0.013,126.0
2022-09-11T05:22:03,42.805,6.029,-0.016,0.031,0.025,102.0,101.0,101.0,13.3,1505.2,328.1,-0.8,1.8,2470.929,13.29,0.034,332.7
2022-09-11T05:25:03,42.805,6.029,-0.004,0.009,-0.023,101.0,102.0,101.0,13.4,1505.2,333.1,-0.8,1.8,2470.953,13.29,0.009,336.0
2022-09-11T05:28:03,42.805,6.029,-0.012,-0.007,-0.037,101.0,102.0,100.0,13.4,1505.2,333.1,-0.8,1.8,2470.957,13.29,0.013,239.7
2022-09-11T05:31:03,42.805,6.029,-0.008,0.004,-0.018,101.0,102.0,101.0,13.4,1505.2,332.2,-0.7,1.8,2470.953,13.29,0.008,296.6
2022-09-11T05:34:03,42.805,6.029,0.004,0.005,0.01,101.0,103.0,101.0,13.4,1505.2,328.3,-0.8,1.8,2470.965,13.29,0.006,38.7
2022-09-11T05:37:03,42.805,6.029,-0.005,0.021,0.001,101.0,101.0,102.0,13.4,1505.2,329.0,-0.8,1.8,2470.951,13.29,0.021,346.6
2022-09-11T05:40:03,42.805,6.029,-0.008,-0.009,-0.01,100.0,100.0,103.0,13.4,1505.2,324.0,-0.7,1.8,2470.956,13.29,0.012,221.6
2022-09-11T05:43:03,42.805,6.029,0.0,0.017,0.026,102.0,102.0,100.0,13.4,1505.2,322.3,-0.7,1.8,2470.956,13.29,0.017,0.0
2022-09-11T05:46:03,42.805,6.029,-0.013,-0.005,-0.007,101.0,102.0,100.0,13.4,1505.2,328.4,-0.7,1.8,2470.991,13.29,0.013,249.0
2022-09-11T05:49:03,42.805,6.029,-0.007,-0.002,-0.004,100.0,101.0,101.0,13.4,1505.2,326.1,-0.8,1.8,2470.951,13.29,0.007,254.1
2022-09-11T05:52:03,42.805,6.029,-0.011,-0.005,-0.003,102.0,102.0,101.0,13.4,1505.2,321.9,-0.8,1.8,2470.989,13.29,0.012,245.6
2022-09-11T05:55:03,42.805,6.029,0.011,-0.005,0.009,101.0,101.0,101.0,13.4,1505.2,323.5,-0.8,1.8,2471.01,13.29,0.012,114.4
2022-09-11T05:58:03,42.805,6.029,-0.018,0.026,0.021,100.0,104.0,101.0,13.4,1505.2,323.5,-0.7,1.8,2471.003,13.29,0.031,325.3
2022-09-11T06:04:03,42.805,6.029,-0.005,-0.003,-0.024,100.0,101.0,101.0,13.4,1505.2,318.8,-0.8,1.8,2471.04,13.29,0.005,239.0
2022-09-11T06:07:03,42.805,6.029,-0.02,0.0,-0.008,101.0,101.0,100.0,13.4,1505.2,325.9,-0.8,1.8,2471.005,13.29,0.02,270.0
2022-09-11T06:10:03,42.805,6.029,-0.007,0.016,0.014,101.0,102.0,100.0,13.3,1505.2,322.0,-0.8,1.8,2471.038,13.29,0.017,336.4
2022-09-11T06:13:03,42.805,6.029,0.017,0.021,0.011,102.0,103.0,101.0,13.4,1505.2,321.0,-0.8,1.9,2471.016,13.29,0.027,39.0
2022-09-11T06:16:03,42.805,6.029,-0.013,0.006,0.001,100.0,104.0,100.0,13.4,1505.2,319.9,-0.8,1.8,2471.055,13.29,0.014,294.8
2022-09-11T06:19:03,42.805,6.029,-0.021,0.001,-0.001,103.0,103.0,101.0,13.3,1505.2,329.3,-0.7,1.8,2471.047,13.29,0.021,272.7
2022-09-11T06:22:03,42.805,6.029,0.0,0.009,-0.004,100.0,102.0,101.0,13.4,1505.2,329.1,-0.7,1.8,2471.029,13.29,0.009,0.0
2022-09-11T06:25:03,42.805,6.029,0.012,0.009,0.024,102.0,103.0,100.0,13.4,1505.2,323.1,-0.8,1.8,2471.026,13.29,0.015,53.1
2022-09-11T06:28:03,42.805,6.029,0.004,0.0,-0.004,100.0,103.0,99.0,13.4,1505.2,329.6,-0.8,1.8,2471.042,13.29,0.004,90.0
2022-09-11T06:31:03,42.805,6.029,-0.018,-0.003,-0.005,100.0,102.0,101.0,13.4,1505.2,327.6,-0.8,1.8,2471.054,13.29,0.018,260.5
2022-09-11T06:34:03,42.805,6.029,0.007,-0.008,0.003,102.0,101.0,101.0,13.4,1505.2,316.9,-0.8,1.8,2471.023,13.29,0.01,138.8
2022-09-11T06:37:03,42.805,6.029,-0.015,0.002,-0.033,100.0,104.0,100.0,13.3,1505.2,331.6,-0.8,1.8,2471.042,13.29,0.015,277.6
2022-09-11T06:40:03,42.805,6.029,-0.008,0.0,0.002,101.0,102.0,99.0,13.3,1505.2,327.3,-0.8,1.8,2471.031,13.29,0.008,270.0
2022-09-11T06:43:03,42.805,6.029,-0.018,0.017,0.002,101.0,102.0,99.0,13.4,1505.2,328.6,-0.8,1.8,2470.939,13.29,0.024,313.4
2022-09-11T06:46:03,42.805,6.029,-0.002,-0.003,-0.023,100.0,102.0,100.0,13.4,1505.2,327.9,-0.7,1.8,2470.92,13.29,0.003,213.7
2022-09-11T06:49:03,42.805,6.029,0.002,-0.001,-0.004,101.0,100.0,101.0,13.4,1505.2,333.7,-0.8,1.8,2470.923,13.29,0.002,116.6
2022-09-11T06:52:03,42.805,6.029,-0.018,0.014,-0.007,101.0,101.0,101.0,13.4,1505.2,319.6,-0.8,1.8,2470.899,13.29,0.022,307.9
2022-09-11T06:55:03,42.805,6.029,-0.014,0.014,-0.028,101.0,101.0,100.0,13.3,1505.2,322.4,-0.8,1.8,2470.88,13.29,0.019,315.0
2022-09-11T06:58:03,42.805,6.029,-0.019,-0.008,-0.023,99.0,102.0,101.0,13.4,1505.2,325.5,-0.8,1.8,2470.89,13.29,0.02,247.2
2022-09-11T07:04:03,42.805,6.029,-0.015,0.006,0.0,102.0,102.0,100.0,13.3,1505.2,330.4,-0.7,1.8,2470.876,13.29,0.016,291.8
2022-09-11T07:07:03,42.805,6.029,-0.015,0.001,-0.007,102.0,102.0,100.0,13.4,1505.2,324.7,-0.8,1.8,2470.893,13.29,0.015,273.8
2022-09-11T07:10:03,42.805,6.029,-0.01,0.014,-0.001,102.0,100.0,101.0,13.4,1505.2,319.5,-0.8,1.8,2470.877,13.29,0.017,324.5
2022-09-11T07:13:03,42.805,6.029,-0.001,0.017,0.025,103.0,101.0,100.0,13.3,1505.2,322.3,-0.8,1.8,2470.826,13.29,0.017,356.6
2022-09-11T07:16:03,42.805,6.029,-0.005,0.022,0.015,101.0,100.0,101.0,13.3,1505.2,326.8,-0.8,1.8,2470.838,13.29,0.022,347.2
2022-09-11T07:19:03,42.805,6.029,-0.011,0.007,0.011,101.0,101.0,100.0,13.4,1505.2,322.3,-0.7,1.8,2470.843,13.29,0.013,302.5
2022-09-11T07:22:03,42.805,6.029,-0.013,0.006,-0.017,102.0,101.0,100.0,13.4,1505.2,323.6,-0.7,1.8,2470.876,13.29,0.014,294.8
2022-09-11T07:25:03,42.805,6.029,-0.004,0.004,-0.007,101.0,102.0,102.0,13.4,1505.2,322.7,-0.8,1.8,2470.857,13.29,0.005,315.0
2022-09-11T07:28:03,42.805,6.029,-0.008,0.018,0.008,102.0,102.0,100.0,13.4,1505.2,319.3,-0.7,1.8,2470.874,13.29,0.019,336.0
2022-09-11T07:31:03,42.805,6.029,-0.014,0.025,0.017,101.0,102.0,102.0,13.4,1505.2,330.7,-0.7,1.8,2470.878,13.29,0.028,330.7
2022-09-11T07:34:03,42.805,6.029,-0.018,-0.004,-0.013,100.0,101.0,102.0,13.4,1505.2,322.8,-0.7,1.8,2470.851,13.29,0.018,257.5
2022-09-11T07:37:03,42.805,6.029,-0.017,0.02,-0.014,100.0,103.0,101.0,13.4,1505.2,318.2,-0.7,1.8,2470.829,13.29,0.026,319.6
2022-09-11T07:40:03,42.805,6.029,-0.017,0.022,0.001,101.0,103.0,101.0,13.4,1505.2,322.1,-0.7,1.8,2470.858,13.29,0.027,322.3
2022-09-11T07:43:03,42.805,6.029,0.003,0.017,0.027,101.0,101.0,102.0,13.4,1505.2,326.4,-0.7,1.8,2470.824,13.29,0.017,10.0
2022-09-11T07:46:03,42.805,6.029,0.0,0.004,-0.021,102.0,102.0,99.0,13.4,1505.2,330.9,-0.8,1.9,2470.858,13.29,0.004,0.0
2022-09-11T07:49:03,42.805,6.029,0.017,0.004,0.0,101.0,102.0,100.0,13.4,1505.2,329.8,-0.8,1.8,2470.863,13.29,0.017,76.8
2022-09-11T07:52:03,42.805,6.029,-0.012,-0.009,-0.015,101.0,104.0,100.0,13.3,1505.2,330.7,-0.7,1.8,2470.85,13.29,0.015,233.1
2022-09-11T07:55:03,42.805,6.029,-0.02,0.007,-0.007,101.0,102.0,101.0,13.3,1505.2,331.0,-0.8,1.8,2470.884,13.29,0.021,289.3
2022-09-11T07:58:03,42.805,6.029,-0.014,-0.01,-0.028,101.0,101.0,101.0,13.3,1505.2,328.9,-0.7,1.8,2470.848,13.29,0.017,234.5
2022-09-11T08:04:03,42.805,6.029,-0.001,-0.012,-0.017,101.0,103.0,100.0,13.3,1505.2,318.8,-0.8,1.8,2470.856,13.29,0.012,184.8
2022-09-11T08:07:03,42.805,6.029,-0.014,0.02,0.022,101.0,101.0,101.0,13.3,1505.2,324.7,-0.8,1.8,2470.906,13.29,0.024,325.0
2022-09-11T08:10:03,42.805,6.029,-0.031,0.019,-0.002,101.0,102.0,101.0,13.4,1505.2,325.8,-0.7,1.8,2470.883,13.29,0.036,301.5
2022-09-11T08:13:03,42.805,6.029,-0.022,0.02,-0.006,101.0,103.0,101.0,13.3,1505.2,320.1,-0.8,1.8,2470.838,13.29,0.029,312.3
2022-09-11T08:16:03,42.805,6.029,0.003,0.01,0.013,102.0,102.0,101.0,13.4,1505.2,323.8,-0.7,1.8,2470.863,13.29,0.01,16.7
2022-09-11T08:19:03,42.805,6.029,0.031,0.0,0.01,103.0,101.0,100.0,13.4,1505.2,320.5,-0.8,1.8,2470.891,13.29,0.03,90.0
2022-09-11T08:22:03,42.805,6.029,0.003,0.008,-0.01,100.0,103.0,101.0,13.4,1505.2,320.8,-0.8,1.8,2470.895,13.29,0.008,20.6
2022-09-11T08:25:03,42.805,6.029,-0.001,0.005,0.005,101.0,102.0,101.0,13.4,1505.2,325.8,-0.7,1.8,2470.861,13.29,0.005,348.7
2022-09-11T08:28:03,42.805,6.029,0.022,-0.001,-0.018,102.0,102.0,101.0,13.4,1505.2,318.9,-0.8,1.8,2470.913,13.29,0.022,92.6
2022-09-11T08:31:03,42.805,6.029,0.008,0.017,0.005,101.0,101.0,101.0,13.4,1505.2,325.8,-0.8,1.8,2470.894,13.29,0.018,25.2
2022-09-11T08:34:03,42.805,6.029,-0.012,-0.007,-0.025,102.0,102.0,100.0,13.4,1505.2,329.4,-0.8,1.8,2470.868,13.29,0.013,239.7
2022-09-11T08:37:03,42.805,6.029,-0.03,-0.003,-0.044,102.0,101.0,100.0,13.3,1505.2,324.3,-0.7,1.8,2470.906,13.29,0.03,264.3
2022-09-11T08:40:03,42.805,6.029,-0.008,0.013,-0.003,103.0,101.0,101.0,13.4,1505.2,327.3,-0.7,1.8,2470.873,13.29,0.015,328.4
2022-09-11T08:43:03,42.805,6.029,0.03,-0.009,0.002,101.0,104.0,101.0,13.4,1505.2,322.5,-0.7,1.8,2470.88,13.29,0.031,106.7
2022-09-11T08:46:03,42.805,6.029,0.002,0.009,0.017,101.0,101.0,102.0,13.4,1505.2,327.7,-0.7,1.8,2470.86,13.29,0.009,12.5
2022-09-11T08:49:03,42.805,6.029,0.0,-0.009,-0.009,102.0,102.0,100.0,13.3,1505.2,328.1,-0.8,1.8,2470.88,13.29,0.009,180.0
2022-09-11T08:52:03,42.805,6.029,-0.004,0.0,0.012,101.0,101.0,102.0,13.4,1505.2,331.3,-0.8,1.8,2470.903,13.29,0.004,270.0
2022-09-11T08:55:03,42.805,6.029,-0.002,0.005,0.0,101.0,102.0,100.0,13.4,1505.2,322.5,-0.8,1.9,2470.865,13.29,0.005,338.2
2022-09-11T08:58:03,42.805,6.029,0.007,0.006,0.031,101.0,101.0,100.0,13.3,1505.2,320.8,-0.7,1.8,2470.931,13.29,0.009,49.4
2022-09-11T09:01:03,42.805,6.029,-0.001,0.002,-0.006,101.0,101.0,100.0,13.4,1505.2,321.5,-0.8,1.8,2470.893,13.29,0.002,333.4
2022-09-11T09:04:03,42.805,6.029,0.005,0.014,0.003,101.0,103.0,101.0,13.4,1505.2,324.4,-0.7,1.8,2470.92,13.29,0.014,19.6
2022-09-11T09:07:03,42.805,6.029,-0.002,-0.008,0.0,102.0,103.0,101.0,13.4,1505.2,327.3,-0.7,1.8,2470.884,13.29,0.008,194.0
2022-09-11T09:10:03,42.805,6.029,0.018,-0.001,-0.011,102.0,102.0,100.0,13.4,1505.2,324.3,-0.7,1.8,2470.889,13.29,0.018,93.2
2022-09-11T09:13:03,42.805,6.029,0.018,-0.02,0.006,101.0,102.0,99.0,13.3,1505.2,334.3,-0.8,1.8,2470.927,13.29,0.026,138.0
2022-09-11T09:16:03,42.805,6.029,0.01,0.002,0.01,101.0,102.0,100.0,13.3,1505.2,326.8,-0.8,1.8,2470.947,13.29,0.01,78.7
2022-09-11T09:19:03,42.805,6.029,0.014,-0.004,-0.016,102.0,101.0,100.0,13.3,1505.2,322.0,-0.8,1.8,2470.888,13.29,0.014,105.9
2022-09-11T09:22:03,42.805,6.029,-0.002,-0.012,-0.03,101.0,101.0,100.0,13.4,1505.2,322.7,-0.7,1.8,2470.886,13.29,0.012,189.5
2022-09-11T09:25:03,42.805,6.029,-0.013,0.007,-0.01,100.0,102.0,101.0,13.3,1505.2,319.4,-0.8,1.8,2470.955,13.29,0.014,298.3
2022-09-11T09:28:03,42.805,6.029,0.02,-0.02,-0.009,101.0,101.0,101.0,13.3,1505.2,321.9,-0.8,1.8,2470.882,13.29,0.028,135.0
2022-09-11T09:31:03,42.805,6.029,-0.007,-0.002,-0.022,102.0,103.0,101.0,13.4,1505.2,324.3,-0.7,1.8,2470.872,13.29,0.007,254.1
2022-09-11T09:34:03,42.805,6.029,0.0,0.007,0.009,101.0,102.0,101.0,13.3,1505.2,325.5,-0.8,1.8,2470.832,13.29,0.007,0.0
2022-09-11T09:37:03,42.805,6.029,0.015,-0.024,-0.001,100.0,102.0,100.0,13.4,1505.2,327.1,-0.8,1.8,2470.873,13.29,0.028,148.0
2022-09-11T09:40:03,42.805,6.029,-0.011,-0.003,-0.03,101.0,100.0,101.0,13.3,1505.2,328.4,-0.8,1.8,2470.866,13.29,0.011,254.7
2022-09-11T09:43:03,42.805,6.029,-0.019,-0.001,-0.033,102.0,101.0,100.0,13.4,1505.2,325.1,-0.7,1.8,2470.921,13.29,0.019,267.0
2022-09-11T09:46:03,42.805,6.029,0.004,-0.01,-0.013,101.0,102.0,100.0,13.3,1505.2,320.6,-0.8,1.8,2470.929,13.29,0.01,158.2
2022-09-11T09:49:03,42.805,6.029,-0.005,0.007,0.008,101.0,101.0,101.0,13.4,1505.2,319.6,-0.7,1.8,2470.927,13.29,0.008,324.5
2022-09-11T09:52:03,42.805,6.029,-0.021,0.011,0.025,102.0,100.0,101.0,13.3,1505.2,321.7,-0.8,1.8,2470.89,13.29,0.023,297.6
2022-09-11T09:55:03,42.805,6.029,-0.017,0.006,0.016,102.0,102.0,101.0,13.4,1505.2,324.1,-0.7,1.8,2470.95,13.29,0.018,289.4